Date String (YYYY-MM-DD hh:mm:ss) UTC,Instrument flags,absolute air pressure of the measurement (hPa),sample flow rate (lpm),inlet stack bypass flow (lpm),air temperature of the measurement (°C),ambient temperature measured by the external sensor (°C),aerosol sample conditioner tube jacket temperature (°C),OPC LED temperature (°C),internal box temperature (°C),relative humidity of the measurement (%),span deviation,mass concentration of particles derived from Lorenz-Mie calculation of OPC scattering (μg/m³),mass concentration of particles derived from Lorenz-Mie calculation of OPC scattering (μg/m³),mass concentration of particles derived from Lorenz-Mie calculation of OPC scattering (μg/m³)
DateTimeUTC,F1_M11,P_M11,Q1_M11,Q2_M11,T1_M11,T2_M11,T3_M11,T4_M11,T5_M11,U1_M11,ZSPAN_M11,X2_M11,X0_M11,X1_M11
2023-07-06 15:00:00,SystemResetWarning,0833.7,5.00,000.00,030.8,028.8,000.0,039.2,031.8,33.6,-001.5,0008.55,0013.12,0008.09
2023-07-06 15:01:00,SystemResetWarning,0833.7,4.99,000.00,030.8,028.8,000.0,039.2,031.8,33.8,-001.5,0008.58,0013.63,0008.14
2023-07-06 15:02:00,SystemResetWarning,0833.7,4.99,000.00,030.8,028.9,000.0,039.2,031.8,33.7,-001.7,0008.60,0013.74,0008.17
2023-07-06 15:03:00,SystemResetWarning,0833.7,5.00,000.00,030.8,028.9,000.0,039.2,031.8,33.4,-001.8,0008.64,0013.86,0008.19
2023-07-06 15:04:00,SystemResetWarning,0833.7,5.00,000.00,030.8,028.9,000.0,039.2,031.9,32.4,-002.0,0008.64,0013.69,0008.22
2023-07-06 15:05:00,SystemResetWarning,0833.7,5.02,000.00,030.8,028.9,000.0,039.2,031.9,32.5,-002.1,0008.64,0013.80,0008.21
2023-07-06 15:06:00,SystemResetWarning,0833.7,5.00,000.00,030.8,028.9,000.0,039.2,031.9,33.9,-002.1,0008.64,0013.83,0008.21
2023-07-06 15:07:00,SystemResetWarning,0833.8,5.00,000.00,030.8,029.0,000.0,039.2,031.9,34.5,-002.0,0008.61,0013.75,0008.20
2023-07-06 15:08:00,SystemResetWarning,0833.8,5.00,000.00,030.8,029.0,000.0,039.2,031.9,34.7,-002.0,0008.61,0013.55,0008.20
2023-07-06 15:09:00,SystemResetWarning,0833.8,5.01,000.00,030.9,029.0,000.0,039.2,032.0,33.8,-002.3,0008.63,0013.56,0008.18
2023-07-06 15:10:00,SystemResetWarning,0833.9,4.99,000.00,030.9,029.0,000.0,039.2,032.0,33.1,-002.2,0008.58,0013.43,0008.13
2023-07-06 15:11:00,SystemResetWarning,0833.9,4.99,000.00,030.9,029.0,000.0,039.3,032.0,33.7,-002.1,0008.52,0013.09,0008.09
2023-07-06 15:12:00,SystemResetWarning,0833.9,4.99,000.00,030.9,028.5,000.0,039.2,032.0,33.9,-002.1,0008.49,0012.44,0008.04
2023-07-06 15:13:00,SystemResetWarning,0834.0,5.00,000.00,030.9,026.8,000.0,039.1,031.8,33.5,-002.1,0008.45,0012.36,0008.01
2023-07-06 15:14:00,SystemResetWarning,0833.9,5.00,000.00,030.8,026.0,000.0,039.0,031.6,33.6,-002.2,0008.42,0012.37,0007.97
2023-07-06 15:15:00,SystemResetWarning,0833.9,5.00,000.00,030.7,026.1,000.0,039.0,031.3,33.6,-002.1,0008.36,0012.29,0007.93
2023-07-06 15:16:00,SystemResetWarning,0834.0,5.01,000.00,030.5,026.4,000.0,039.0,031.3,34.0,-002.0,0008.28,0012.08,0007.87
2023-07-06 15:17:00,SystemResetWarning,0833.9,5.01,000.00,030.5,026.8,000.0,039.0,031.3,34.6,-002.1,0008.24,0012.08,0007.82
2023-07-06 15:18:00,SystemResetWarning,0833.9,4.99,000.00,030.4,027.1,000.0,039.0,031.4,34.5,-002.1,0008.24,0012.14,0007.80
2023-07-06 15:19:00,SystemResetWarning,0833.9,5.00,000.00,030.4,027.4,000.0,039.0,031.4,34.6,-002.1,0008.23,0012.18,0007.78
2023-07-06 15:20:00,SystemResetWarning,0833.9,5.02,000.00,030.4,027.7,000.0,039.0,031.5,34.6,-002.1,0008.16,0012.03,0007.74
2023-07-06 15:21:00,SystemResetWarning,0834.0,5.00,000.00,030.4,027.9,000.0,039.0,031.5,34.7,-002.3,0008.16,0012.05,0007.73
2023-07-06 15:22:00,SystemResetWarning,0834.1,5.00,000.00,030.4,028.1,000.0,039.0,031.5,34.5,-002.4,0008.11,0011.96,0007.72
2023-07-06 15:23:00,SystemResetWarning,0834.1,5.00,000.00,030.4,028.2,000.0,039.0,031.5,34.3,-002.4,0008.05,0011.75,0007.68
2023-07-06 15:24:00,SystemResetWarning,0834.2,5.00,000.00,030.4,028.3,000.0,039.0,031.6,33.8,-002.5,0008.04,0011.66,0007.67
2023-07-06 15:25:00,SystemResetWarning,0834.2,5.00,000.00,030.4,028.5,000.0,038.9,031.6,33.7,-002.6,0007.97,0011.54,0007.61
2023-07-06 15:26:00,SystemResetWarning,0834.2,5.00,000.00,030.4,028.5,000.0,038.9,031.6,33.4,-002.7,0007.91,0011.42,0007.55
2023-07-06 15:27:00,SystemResetWarning,0834.2,5.00,000.00,030.4,028.6,000.0,038.9,031.7,33.8,-002.9,0007.91,0011.46,0007.53
2023-07-06 15:28:00,SystemResetWarning,0834.1,5.00,000.00,030.4,028.7,000.0,038.9,031.7,33.3,-002.7,0007.89,0011.38,0007.52
2023-07-06 15:29:00,SystemResetWarning,0834.1,5.00,000.00,030.4,028.7,000.0,038.9,031.7,33.5,-002.4,0007.87,0011.34,0007.50
2023-07-06 15:30:00,SystemResetWarning,0834.1,5.00,000.00,030.4,028.8,000.0,038.9,031.7,33.8,-002.5,0007.81,0011.26,0007.45
2023-07-06 15:31:00,SystemResetWarning,0834.0,5.00,000.00,030.4,028.8,000.0,038.9,031.8,33.6,-002.5,0007.79,0011.30,0007.42
2023-07-06 15:32:00,SystemResetWarning,0834.0,5.00,000.00,030.4,028.8,000.0,038.9,031.7,33.3,-002.4,0007.74,0011.28,0007.37
2023-07-06 15:33:00,SystemResetWarning,0834.0,5.01,000.00,030.5,028.9,000.0,039.0,031.7,33.2,-002.4,0007.70,0011.28,0007.32
2023-07-06 15:34:00,SystemResetWarning,0834.0,5.00,000.00,030.5,028.9,000.0,039.0,031.7,33.5,-002.6,0007.67,0011.30,0007.28
2023-07-06 15:35:00,SystemResetWarning,0834.0,4.99,000.00,030.5,028.9,000.0,039.0,031.8,34.2,-002.6,0007.61,0011.21,0007.22
2023-07-06 15:36:00,SystemResetWarning,0834.0,5.00,000.00,030.5,029.0,000.0,039.0,031.8,34.3,-002.3,0007.58,0011.12,0007.19
2023-07-06 15:37:00,SystemResetWarning,0833.9,5.00,000.00,030.5,029.0,000.0,039.0,031.8,33.3,-002.4,0007.57,0011.11,0007.16
2023-07-06 15:38:00,SystemResetWarning,0833.8,5.00,000.00,030.5,029.0,000.0,039.0,031.9,32.6,-002.2,0007.52,0010.99,0007.12
2023-07-06 15:39:00,SystemResetWarning,0833.8,5.00,000.00,030.5,029.0,000.0,039.0,031.9,32.4,-002.2,0007.49,0011.00,0007.07
2023-07-06 15:40:00,SystemResetWarning,0833.9,5.00,000.00,030.5,029.1,000.0,039.0,031.9,32.3,-002.4,0007.46,0011.04,0007.04
2023-07-06 15:41:00,SystemResetWarning,0833.8,5.00,000.00,030.5,029.1,000.0,039.0,031.9,32.2,-002.5,0007.45,0010.98,0007.03
2023-07-06 15:42:00,SystemResetWarning,0833.8,5.00,000.00,030.5,029.1,000.0,039.0,031.9,32.1,-002.4,0007.41,0010.88,0007.02
2023-07-06 15:43:00,SystemResetWarning,0833.8,5.00,000.00,030.6,028.5,000.0,039.0,031.9,32.2,-002.3,0007.40,0010.74,0007.02
2023-07-06 15:44:00,SystemResetWarning,0833.8,5.00,000.00,030.5,026.8,000.0,038.8,031.8,32.8,-002.4,0007.42,0010.77,0007.03
2023-07-06 15:45:00,SystemResetWarning,0833.8,5.01,000.00,030.5,026.2,000.0,038.8,031.6,32.7,-002.2,0007.44,0010.79,0007.03
2023-07-06 15:46:00,SystemResetWarning,0833.8,5.01,000.00,030.3,026.3,000.0,038.8,031.3,32.5,-002.1,0007.45,0010.86,0007.04
2023-07-06 15:47:00,SystemResetWarning,0833.7,5.00,000.00,030.2,026.6,000.0,038.8,031.3,32.5,-002.2,0007.47,0010.90,0007.05
2023-07-06 15:48:00,SystemResetWarning,0833.7,4.99,000.00,030.2,027.0,000.0,038.8,031.3,33.1,-002.3,0007.49,0010.92,0007.08
2023-07-06 15:49:00,SystemResetWarning,0833.8,5.00,000.00,030.2,027.3,000.0,038.8,031.4,32.6,-002.1,0007.49,0010.91,0007.11
2023-07-06 15:50:00,SystemResetWarning,0833.8,5.00,000.00,030.2,027.6,000.0,038.8,031.4,33.8,-002.4,0007.53,0010.96,0007.14
2023-07-06 15:51:00,SystemResetWarning,0833.8,5.00,000.00,030.2,027.9,000.0,038.8,031.5,33.2,-002.4,0007.57,0010.95,0007.16
2023-07-06 15:52:00,SystemResetWarning,0833.8,5.00,000.00,030.2,028.1,000.0,038.8,031.5,33.6,-002.3,0007.59,0011.01,0007.17
2023-07-06 15:53:00,SystemResetWarning,0833.7,5.00,000.00,030.2,028.2,000.0,038.8,031.5,33.4,-002.5,0007.62,0011.14,0007.18
2023-07-06 15:54:00,SystemResetWarning,0833.6,4.99,000.00,030.2,028.4,000.0,038.8,031.6,32.9,-002.5,0007.69,0011.31,0007.20
2023-07-06 15:55:00,SystemResetWarning,0833.5,4.99,000.00,030.2,028.5,000.0,038.8,031.6,33.4,-002.3,0007.71,0011.52,0007.22
2023-07-06 15:56:00,SystemResetWarning,0833.4,5.00,000.00,030.2,028.6,000.0,038.8,031.6,33.1,-002.2,0007.75,0011.94,0007.24
2023-07-06 15:57:00,SystemResetWarning,0833.4,5.01,000.00,030.2,028.7,000.0,038.8,031.7,32.4,-002.1,0007.77,0011.94,0007.24
2023-07-06 15:58:00,SystemResetWarning,0833.4,5.01,000.00,030.2,028.8,000.0,038.8,031.7,31.8,-002.2,0007.77,0011.93,0007.25
2023-07-06 15:59:00,SystemResetWarning,0833.4,5.00,000.00,030.3,028.8,000.0,038.8,031.7,32.1,-002.1,0007.82,0011.99,0007.26
